QPF
0.00 0.00 0.00 0.00 0.00 0.00 0.00 0.00 0.00 0.00 0.00 0.00 0.00 0.00 0.00 0.00 0.00 0.00 0.00 0.00 0.00 0.00 0.00 0.00 0.00 0.01 0.01 0.01 0.01 0.01 0.01 0.01 0.01
0.00 0.00 0.00 0.00 0.00 0.00 0.00 0.00 0.00 0.00 0.00 0.00 0.00 0.00 0.00 0.00 0.00 0.00 0.00 0.00 0.00 0.00 0.00 0.00 0.00 0.00 0.00 0.00 0.00 0.01 0.01 0.01 0.01
0.00 0.00 0.00 0.00 0.00 0.00 0.00 0.00 0.00 0.00 0.00 0.00 0.00 0.00 0.00 0.00 0.00 0.00 0.00 0.00 0.00 0.00 0.00 0.00 0.00 0.00 0.00 0.00 0.00 0.00 0.01 0.01 0.00
0.00 0.00 0.00 0.00 0.00 0.00 0.00 0.00 0.00 0.00 0.00 0.00 0.00 0.00 0.00 0.00 0.00 0.00 0.00 0.00 0.00 0.00 0.00 0.00 0.00 0.00 0.00 0.00 0.00 0.00 0.00 0.00 0.00
0.00 0.00 0.00 0.00 0.00 0.00 0.00 0.00 0.00 0.00 0.00 0.00 0.00 0.00 0.00 0.00 0.00 0.00 0.00 0.00 0.00 0.00 0.00 0.00 0.00 0.00 0.00 0.00 0.00 0.00 0.00 0.00 0.00
0.00 0.00 0.00 0.00 0.00 0.00 0.00 0.00 0.00 0.00 0.00 0.00 0.00 0.00 0.00 0.00 0.00 0.00 0.01 0.01 0.00 0.00 0.00 0.00 0.00 0.00 0.00 0.00 0.00 0.00 0.00 0.00 0.00
0.00 0.00 0.00 0.00 0.00 0.00 0.00 0.00 0.00 0.00 0.00 0.00 0.00 0.00 0.00 0.00 0.00 0.00 0.01 0.01 0.00 0.00 0.00 0.00 0.00 0.00 0.00 0.00 0.00 0.00 0.00 0.00 0.00
0.00 0.00 0.00 0.00 0.00 0.00 0.00 0.00 0.00 0.00 0.00 0.00 0.00 0.00 0.00 0.00 0.00 0.00 0.00 0.00 0.00 0.00 0.00 0.00 0.00 0.00 0.00 0.00 0.00 0.00 0.00 0.00 0.00
0.00 0.00 0.00 0.00 0.00 0.00 0.00 0.00 0.00 0.00 0.00 0.00 0.00 0.00 0.00 0.00 0.00 0.00 0.00 0.00 0.00 0.00 0.00 0.00 0.00 0.00 0.00 0.00 0.00 0.00 0.00 0.00 0.00
0.00 0.00 0.00 0.00 0.00 0.00 0.00 0.00 0.00 0.00 0.00 0.00 0.00 0.00 0.00 0.00 0.00 0.00 0.00 0.00 0.00 0.00 0.00 0.00 0.00 0.00 0.00 0.00 0.00 0.00 0.00 0.00 0.00
0.00 0.00 0.00 0.00 0.00 0.00 0.00 0.00 0.00 0.00 0.00 0.00 0.00 0.00 0.00 0.00 0.00 0.00 0.00 0.00 0.00 0.00 0.00 0.01 0.02 0.02 0.01 0.00 0.00 0.00 0.00 0.00 0.00
0.00 0.00 0.00 0.00 0.00 0.00 0.00 0.00 0.00 0.00 0.00 0.00 0.00 0.00 0.00 0.00 0.00 0.00 0.00 0.00 0.00 0.00 0.00 0.00 0.00 0.01 0.02 0.05 0.01 0.00 0.00 0.00 0.00
0.00 0.00 0.00 0.00 0.00 0.00 0.00 0.00 0.00 0.00 0.00 0.00 0.00 0.00 0.00 0.00 0.00 0.00 0.00 0.00 0.00 0.00 0.00 0.00 0.00 0.00 0.00 0.00 0.00 0.00 0.00 0.00 0.00
0.00 0.00 0.00 0.00 0.00 0.00 0.00 0.00 0.00 0.00 0.00 0.00 0.00 0.00 0.00 0.00 0.00 0.00 0.00 0.00 0.00 0.00 0.00 0.00 0.00 0.00 0.00 0.00 0.00 0.00 0.00 0.00 0.00
0.00 0.00 0.00 0.00 0.00 0.00 0.00 0.00 0.00 0.00 0.00 0.00 0.00 0.00 0.00 0.00 0.00 0.00 0.00 0.00 0.00 0.00 0.00 0.00 0.00 0.00 0.00 0.00 0.00 0.00 0.00 0.00 0.00
0.00 0.00 0.00 0.00 0.00 0.00 0.00 0.00 0.00 0.00 0.00 0.00 0.00 0.00 0.00 0.00 0.00 0.00 0.00 0.00 0.00 0.00 0.00 0.00 0.00 0.00 0.00 0.00 0.00 0.01 0.02 0.01 0.00
0.00 0.00 0.00 0.00 0.00 0.00 0.00 0.00 0.00 0.00 0.00 0.00 0.00 0.00 0.00 0.00 0.00 0.00 0.00 0.00 0.00 0.00 0.00 0.00 0.00 0.00 0.00 0.00 0.00 0.00 0.01 0.02 0.02
0.00 0.00 0.00 0.00 0.00 0.00 0.00 0.00 0.00 0.00 0.00 0.00 0.00 0.00 0.00 0.00 0.00 0.00 0.00 0.00 0.00 0.00 0.00 0.00 0.00 0.00 0.00 0.00 0.00 0.00 0.00 0.00 0.00
0.00 0.00 0.00 0.00 0.00 0.00 0.00 0.00 0.00 0.00 0.00 0.00 0.00 0.00 0.00 0.00 0.00 0.00 0.00 0.00 0.00 0.00 0.00 0.00 0.00 0.00 0.00 0.00 0.00 0.00 0.00 0.00 0.00
0.00 0.00 0.00 0.00 0.00 0.00 0.00 0.00 0.00 0.00 0.00 0.00 0.00 0.00 0.00 0.00 0.00 0.00 0.00 0.00 0.00 0.00 0.00 0.00 0.00 0.00 0.00 0.00 0.00 0.00 0.00 0.00 0.00
MSLP
1017.61 1018.00 1018.27 1018.55 1018.81 1018.98 1019.02 1019.02 1019.20 1019.30 1019.38 1019.49 1019.54 1019.60 1019.70 1019.68 1019.56 1019.44 1019.37 1019.30 1019.42 1019.45 1019.48 1019.52 1019.34 1019.16 1019.04 1018.83 1018.61 1018.52 1018.39 1018.23 1018.02
1017.90 1018.15 1018.46 1018.66 1018.94 1019.20 1019.24 1019.23 1019.38 1019.57 1019.66 1019.79 1019.88 1019.99 1020.00 1019.75 1019.74 1019.73 1019.72 1019.72 1019.82 1019.76 1019.84 1019.85 1019.85 1019.78 1019.50 1019.26 1019.09 1018.95 1018.76 1018.59 1018.45
1018.22 1018.51 1018.59 1018.81 1018.98 1019.26 1019.52 1019.54 1019.56 1019.72 1019.86 1020.05 1020.23 1020.33 1020.35 1020.15 1020.13 1020.15 1020.06 1020.21 1020.20 1020.17 1020.26 1020.19 1020.18 1020.16 1020.10 1019.78 1019.57 1019.44 1019.23 1019.10 1018.93
1018.31 1018.66 1018.95 1018.96 1019.21 1019.28 1019.57 1019.86 1019.93 1019.93 1020.04 1020.16 1020.41 1020.60 1020.73 1020.55 1020.58 1020.54 1020.37 1020.54 1020.51 1020.57 1020.60 1020.55 1020.50 1020.48 1020.39 1020.31 1020.17 1019.93 1019.72 1019.61 1019.35
1018.95 1018.94 1019.12 1019.30 1019.43 1019.61 1019.64 1019.85 1020.14 1020.24 1020.27 1020.42 1020.52 1020.72 1020.90 1020.83 1020.88 1020.83 1020.74 1020.83 1020.79 1020.93 1020.96 1020.93 1020.82 1020.78 1020.71 1020.62 1020.49 1020.36 1020.15 1020.00 1019.84
1019.77 1019.75 1019.55 1019.67 1019.67 1019.83 1019.99 1020.01 1020.24 1020.48 1020.56 1020.64 1020.79 1020.87 1020.84 1020.92 1021.06 1021.04 1021.05 1020.99 1021.10 1021.24 1021.25 1021.28 1021.21 1021.06 1021.03 1020.90 1020.81 1020.76 1020.61 1020.50 1020.36
1020.69 1020.62 1020.39 1020.25 1020.11 1020.15 1020.23 1020.27 1020.44 1020.54 1020.54 1020.68 1020.94 1020.85 1020.98 1021.00 1021.11 1021.20 1021.24 1021.08 1021.28 1021.51 1021.60 1021.59 1021.56 1021.41 1021.30 1021.23 1021.06 1021.06 1021.00 1020.93 1020.87
1021.18 1021.28 1021.04 1020.91 1020.81 1020.47 1020.57 1020.56 1020.48 1020.49 1020.50 1020.58 1020.66 1020.83 1020.94 1021.07 1021.19 1021.31 1021.38 1021.34 1021.45 1021.59 1021.75 1021.80 1021.78 1021.71 1021.60 1021.46 1021.36 1021.30 1021.25 1021.36 1021.24
1022.24 1022.06 1021.98 1021.87 1021.85 1021.56 1021.23 1020.82 1020.80 1020.64 1020.52 1020.47 1020.48 1020.72 1020.87 1020.99 1021.30 1021.46 1021.56 1021.52 1021.56 1021.63 1021.80 1021.92 1022.01 1021.95 1021.91 1021.74 1021.63 1021.59 1021.49 1021.43 1021.60
1022.56 1022.87 1022.68 1022.46 1022.54 1022.49 1022.17 1021.70 1021.26 1020.98 1020.78 1020.72 1020.69 1020.80 1020.85 1020.99 1021.19 1021.49 1021.80 1021.68 1021.64 1021.68 1021.85 1021.82 1021.96 1022.08 1022.04 1021.98 1021.87 1021.72 1021.77 1021.76 1021.63
1023.11 1023.06 1023.12 1023.07 1022.80 1022.80 1022.58 1022.44 1021.96 1021.70 1021.26 1021.23 1021.18 1021.25 1021.32 1021.32 1021.45 1021.43 1021.64 1021.92 1021.87 1021.83 1021.83 1021.86 1021.93 1022.00 1022.02 1022.10 1022.09 1021.95 1021.91 1021.89 1021.98
1023.53 1023.69 1023.57 1023.56 1023.54 1023.17 1022.83 1022.55 1022.33 1022.13 1022.04 1021.78 1021.80 1021.77 1021.76 1021.82 1021.79 1021.79 1021.80 1021.79 1022.04 1022.04 1021.97 1022.01 1022.01 1022.07 1022.01 1021.97 1022.14 1022.09 1022.16 1022.00 1022.07
1023.81 1024.30 1024.19 1024.19 1023.93 1023.67 1023.55 1023.37 1022.90 1022.95 1022.88 1022.64 1022.53 1022.35 1022.26 1022.28 1022.31 1022.25 1022.13 1022.04 1022.08 1022.13 1022.20 1022.11 1022.16 1022.12 1022.17 1022.18 1022.17 1022.25 1022.27 1022.27 1022.21
1023.66 1024.76 1024.46 1024.50 1024.44 1024.39 1024.16 1024.13 1023.69 1023.74 1023.68 1023.13 1022.97 1022.97 1022.81 1022.77 1022.61 1022.55 1022.58 1022.47 1022.29 1022.32 1022.31 1022.32 1022.42 1022.38 1022.28 1022.25 1022.28 1022.36 1022.30 1022.31 1022.32
1024.62 1025.00 1024.58 1024.68 1025.03 1024.97 1024.63 1024.28 1024.31 1024.56 1024.51 1023.74 1023.23 1023.30 1023.23 1023.13 1023.17 1022.92 1022.73 1022.59 1022.41 1022.31 1022.46 1022.35 1022.84 1022.87 1022.61 1022.48 1022.34 1022.31 1022.30 1022.31 1022.29
1025.24 1025.46 1024.93 1024.66 1025.39 1025.40 1024.99 1024.39 1024.59 1025.06 1024.77 1024.04 1023.57 1023.62 1023.73 1023.79 1023.58 1023.25 1022.85 1022.88 1023.00 1022.73 1022.87 1022.63 1022.81 1023.18 1023.29 1023.21 1022.84 1022.31 1022.20 1022.32 1022.37
1025.51 1025.09 1025.21 1025.28 1025.87 1025.40 1025.25 1024.67 1025.04 1025.52 1025.01 1025.10 1024.66 1024.16 1024.25 1024.25 1024.52 1024.30 1023.64 1023.84 1023.65 1023.47 1023.40 1023.38 1023.54 1023.66 1023.75 1024.15 1023.77 1023.19 1022.63 1022.53 1022.61
1025.65 1025.48 1025.51 1025.99 1026.27 1025.83 1025.66 1025.01 1024.78 1025.24 1025.92 1025.83 1025.48 1025.08 1025.20 1025.11 1025.44 1025.46 1024.89 1024.65 1024.58 1024.28 1024.00 1024.16 1024.34 1024.48 1024.44 1024.56 1024.44 1024.29 1023.82 1023.40 1023.29
1026.04 1025.97 1025.56 1026.03 1026.48 1025.97 1026.23 1025.89 1025.72 1025.52 1025.81 1026.16 1026.24 1026.01 1025.48 1025.53 1025.35 1026.16 1025.64 1025.40 1025.37 1025.12 1024.92 1024.81 1025.10 1025.26 1025.18 1025.44 1025.37 1024.90 1024.74 1024.34 1023.97
1026.44 1026.09 1025.90 1026.16 1026.78 1026.23 1026.09 1026.51 1025.73 1025.69 1026.08 1026.15 1025.99 1026.35 1025.62 1025.90 1026.73 1025.12 1025.47 1026.00 1026.31 1026.17 1025.79 1025.69 1025.50 1025.92 1025.99 1025.92 1025.95 1025.56 1025.42 1025.00 1024.68
Thickness
5715 5715 5715 5716 5715 5715 5717 5719 5719 5719 5718 5719 5720 5721 5721 5721 5722 5723 5723 5723 5722 5721 5719 5717 5717 5717 5716 5716 5716 5715 5714 5713 5713
5708 5710 5710 5711 5711 5711 5712 5714 5716 5716 5716 5715 5716 5716 5718 5719 5720 5720 5720 5720 5719 5719 5717 5715 5713 5712 5713 5713 5712 5712 5712 5712 5711
5701 5702 5705 5706 5707 5707 5707 5709 5711 5712 5713 5713 5712 5713 5713 5715 5715 5716 5717 5716 5716 5716 5714 5713 5711 5709 5708 5709 5708 5708 5708 5707 5708
5696 5697 5697 5701 5701 5704 5703 5703 5705 5707 5708 5710 5710 5709 5709 5709 5710 5711 5713 5712 5713 5712 5710 5710 5709 5708 5706 5705 5704 5704 5704 5703 5704
5687 5690 5692 5693 5697 5697 5699 5699 5699 5701 5704 5704 5706 5706 5705 5705 5706 5707 5708 5708 5709 5707 5707 5706 5706 5705 5704 5703 5702 5701 5700 5700 5699
5677 5680 5684 5685 5689 5691 5692 5695 5695 5696 5698 5699 5701 5702 5702 5702 5702 5703 5704 5704 5703 5703 5703 5702 5702 5703 5701 5700 5699 5697 5696 5695 5695
5665 5669 5674 5677 5681 5685 5686 5689 5691 5693 5694 5695 5696 5697 5698 5699 5700 5699 5700 5701 5700 5698 5697 5697 5697 5698 5698 5697 5697 5694 5692 5691 5689
5655 5658 5663 5668 5672 5676 5679 5680 5685 5688 5690 5691 5693 5694 5694 5694 5695 5696 5696 5696 5695 5695 5694 5693 5693 5693 5693 5693 5693 5692 5690 5687 5686
5639 5644 5649 5654 5658 5664 5669 5672 5675 5681 5684 5686 5689 5689 5690 5691 5689 5690 5692 5692 5691 5691 5690 5689 5687 5688 5688 5689 5689 5689 5688 5687 5682
5624 5626 5634 5640 5644 5650 5656 5662 5666 5670 5676 5679 5682 5683 5684 5686 5686 5685 5685 5687 5687 5687 5685 5686 5684 5682 5683 5684 5685 5686 5684 5683 5683
5610 5615 5620 5626 5633 5637 5645 5649 5656 5659 5665 5669 5672 5674 5676 5678 5679 5681 5680 5680 5681 5681 5681 5680 5681 5680 5679 5678 5679 5681 5681 5680 5678
5601 5602 5606 5612 5616 5623 5632 5638 5644 5649 5652 5657 5660 5663 5666 5668 5671 5673 5674 5675 5675 5675 5675 5675 5676 5675 5675 5675 5674 5675 5675 5677 5675
5591 5589 5592 5599 5604 5611 5616 5623 5631 5636 5639 5644 5647 5652 5655 5657 5660 5663 5666 5668 5669 5669 5669 5669 5669 5670 5669 5668 5669 5669 5671 5671 5671
5583 5577 5583 5585 5591 5595 5602 5608 5617 5620 5624 5633 5637 5639 5643 5646 5650 5653 5655 5657 5660 5661 5662 5662 5661 5662 5664 5664 5664 5664 5666 5666 5666
5564 5565 5576 5577 5579 5583 5590 5597 5602 5604 5608 5619 5627 5628 5630 5634 5637 5641 5645 5648 5650 5653 5653 5656 5652 5652 5656 5657 5658 5659 5660 5661 5662
5548 5549 5563 5572 5568 5569 5577 5586 5590 5590 5596 5607 5615 5617 5617 5619 5624 5629 5635 5638 5639 5644 5644 5646 5647 5645 5645 5646 5649 5654 5655 5655 5656
5531 5542 5549 5556 5556 5564 5567 5575 5576 5577 5584 5588 5596 5604 5604 5604 5605 5612 5621 5623 5627 5630 5632 5633 5635 5636 5636 5634 5636 5642 5647 5648 5648
5522 5526 5533 5537 5541 5550 5556 5564 5570 5570 5568 5572 5582 5589 5589 5591 5587 5592 5600 5607 5610 5616 5619 5620 5621 5623 5624 5624 5626 5627 5631 5636 5637
5508 5512 5520 5521 5524 5536 5539 5547 5552 5557 5559 5559 5563 5568 5575 5581 5590 5577 5586 5591 5593 5598 5603 5608 5607 5609 5611 5610 5612 5616 5617 5621 5625
5493 5500 5507 5508 5508 5520 5527 5529 5540 5545 5545 5548 5552 5552 5562 5563 5562 5584 5581 5575 5574 5578 5586 5591 5596 5594 5595 5597 5599 5605 5605 5609 5612